| time (UTC) | temp F | wind direction | speed MPH | gust MPH | rain 1hr in | rain 24hr in | rain mn in | humidity % | barometer mb |
| 20260508153135 | 61 | 246 | 0.0 | 7.0 | 0.00 | 0.00 | 0.00 | 41 | 1011.9 |
| 20260508152135 | 60 | 240 | 0.0 | 8.0 | 0.00 | 0.00 | 0.00 | 42 | 1012.1 |
| 20260508151135 | 61 | 240 | 0.0 | 9.0 | 0.00 | 0.00 | 0.00 | 44 | 1012.1 |
| 20260508145134 | 59 | 272 | 0.0 | 10.0 | 0.00 | 0.00 | 0.00 | 46 | 1012.1 |
| 20260508143135 | 59 | 249 | 0.0 | 2.0 | 0.00 | 0.00 | 0.00 | 43 | 1012.2 |
| 20260508141135 | 59 | 316 | 0.0 | 8.0 | 0.00 | 0.00 | 0.00 | 41 | 1012.4 |
| 20260508140135 | 57 | 230 | 0.0 | 6.0 | 0.00 | 0.00 | 0.00 | 44 | 1012.2 |
| 20260508135135 | 57 | 222 | 0.0 | 1.0 | 0.00 | 0.00 | 0.00 | 43 | 1012.4 |
| 20260508132134 | 55 | 284 | 0.0 | 0.0 | 0.00 | 0.00 | 0.00 | 47 | 1012.3 |
| 20260508130134 | 56 | 192 | 0.0 | 0.0 | 0.00 | 0.00 | 0.00 | 60 | 1012.5 |
| 20260508125134 | 55 | 186 | 0.0 | 5.0 | 0.00 | 0.00 | 0.00 | 63 | 1012.6 |
| 20260508124134 | 54 | 184 | 0.0 | 0.0 | 0.00 | 0.00 | 0.00 | 64 | 1012.6 |
| 20260508123134 | 54 | 220 | 0.0 | 0.0 | 0.00 | 0.00 | 0.00 | 64 | 1012.8 |
| 20260508121134 | 53 | 266 | 0.0 | 0.0 | 0.00 | 0.00 | 0.00 | 67 | 1012.6 |
| 20260508120206 | 54 | 275 | 0.0 | 0.0 | 0.00 | 0.00 | 0.00 | 67 | 1012.4 |
| 20260508014118 | 55 | 259 | 0.0 | 0.0 | 0.00 | 0.36 | 0.35 | 54 | 1007.2 |
| 20260508012118 | 55 | 259 | 0.0 | 0.0 | 0.00 | 0.36 | 0.35 | 53 | 1007.1 |
| 20260508011118 | 56 | 259 | 0.0 | 0.0 | 0.00 | 0.36 | 0.35 | 51 | 1007.0 |
| 20260508010119 | 57 | 259 | 0.0 | 0.0 | 0.00 | 0.36 | 0.35 | 49 | 1007.0 |
| 20260508005119 | 58 | 259 | 0.0 | 0.0 | 0.00 | 0.36 | 0.35 | 47 | 1007.0 |
| 20260508004118 | 58 | 259 | 0.0 | 0.0 | 0.00 | 0.36 | 0.35 | 43 | 1006.9 |
| 20260508003118 | 59 | 259 | 0.0 | 0.0 | 0.00 | 0.36 | 0.35 | 44 | 1006.8 |
| 20260508002119 | 60 | 259 | 0.0 | 0.0 | 0.00 | 0.36 | 0.35 | 42 | 1006.7 |
| 20260508001118 | 60 | 259 | 0.0 | 0.0 | 0.00 | 0.36 | 0.35 | 40 | 1006.6 |
| 20260508000118 | 61 | 259 | 0.0 | 0.0 | 0.00 | 0.36 | 0.35 | 39 | 1006.6 |
| 20260507234119 | 62 | 259 | 0.0 | 0.0 | 0.00 | 0.36 | 0.35 | 37 | 1006.3 |
| 20260507232118 | 63 | 263 | 0.0 | 0.0 | 0.00 | 0.36 | 0.35 | 36 | 1006.3 |
| 20260507231118 | 63 | 267 | 0.0 | 0.0 | 0.00 | 0.36 | 0.35 | 37 | 1006.3 |
| 20260507225118 | 65 | 247 | 0.0 | 0.0 | 0.00 | 0.36 | 0.35 | 35 | 1006.1 |
| 20260507224118 | 65 | 244 | 0.0 | 4.0 | 0.00 | 0.36 | 0.35 | 34 | 1006.1 |
| 20260507223118 | 65 | 261 | 0.0 | 5.0 | 0.00 | 0.36 | 0.35 | 36 | 1006.1 |
| 20260507222118 | 65 | 286 | 0.0 | 9.0 | 0.00 | 0.36 | 0.35 | 33 | 1006.0 |
| 20260507221118 | 65 | 234 | 0.0 | 12.0 | 0.00 | 0.36 | 0.35 | 34 | 1006.1 |
| 20260507220118 | 65 | 311 | 0.0 | 9.0 | 0.00 | 0.36 | 0.35 | 34 | 1006.1 |
| 20260507215118 | 65 | 265 | 0.0 | 4.0 | 0.00 | 0.36 | 0.35 | 36 | 1006.1 |
| 20260507214118 | 65 | 267 | 0.0 | 8.0 | 0.00 | 0.36 | 0.35 | 33 | 1006.1 |
| 20260507213118 | 65 | 270 | 0.0 | 4.0 | 0.00 | 0.36 | 0.35 | 34 | 1006.2 |
| 20260507212118 | 65 | 284 | 0.0 | 11.0 | 0.00 | 0.36 | 0.35 | 32 | 1006.2 |
| 20260507211118 | 65 | 283 | 0.0 | 8.0 | 0.00 | 0.36 | 0.35 | 34 | 1006.0 |
| 20260507205118 | 66 | 296 | 2.0 | 7.0 | 0.00 | 0.36 | 0.35 | 34 | 1005.9 |
| 20260507204118 | 66 | 337 | 0.0 | 3.0 | 0.00 | 0.36 | 0.35 | 34 | 1005.9 |
| 20260507203118 | 66 | 334 | 0.0 | 2.0 | 0.00 | 0.36 | 0.35 | 35 | 1006.0 |
| 20260507202118 | 66 | 274 | 0.0 | 4.0 | 0.00 | 0.36 | 0.35 | 31 | 1006.0 |
| 20260507200118 | 66 | 275 | 0.0 | 3.0 | 0.00 | 0.36 | 0.35 | 32 | 1006.1 |
| 20260507194118 | 65 | 252 | 0.0 | 8.0 | 0.00 | 0.36 | 0.35 | 32 | 1006.5 |
| 20260507193118 | 66 | 281 | 0.0 | 9.0 | 0.00 | 0.36 | 0.35 | 34 | 1006.6 |
| 20260507192118 | 66 | 280 | 0.0 | 9.0 | 0.00 | 0.36 | 0.35 | 33 | 1006.6 |
| 20260507191118 | 65 | 269 | 0.0 | 7.0 | 0.00 | 0.36 | 0.35 | 33 | 1006.8 |
| 20260507190118 | 65 | 281 | 0.0 | 4.0 | 0.00 | 0.36 | 0.35 | 38 | 1007.0 |
| 20260507185118 | 65 | 10 | 0.0 | 2.0 | 0.00 | 0.36 | 0.35 | 38 | 1007.0 |
| 20260507184117 | 66 | 96 | 0.0 | 0.0 | 0.00 | 0.36 | 0.35 | 35 | 1007.0 |
| 20260507183118 | 65 | 265 | 0.0 | 9.0 | 0.00 | 0.36 | 0.35 | 36 | 1007.2 |
| 20260507182118 | 64 | 304 | 0.0 | 4.0 | 0.00 | 0.36 | 0.35 | 37 | 1007.4 |
| 20260507180117 | 64 | 277 | 0.0 | 0.0 | 0.00 | 0.36 | 0.35 | 37 | 1007.5 |
| 20260507175118 | 65 | 266 | 0.0 | 9.0 | 0.00 | 0.36 | 0.35 | 39 | 1007.6 |
| 20260507173117 | 63 | 13 | 0.0 | 1.0 | 0.00 | 0.36 | 0.35 | 36 | 1008.0 |
| 20260507172117 | 63 | 273 | 0.0 | 3.0 | 0.00 | 0.36 | 0.35 | 38 | 1008.3 |
| 20260507171117 | 63 | 287 | 0.0 | 0.0 | 0.00 | 0.36 | 0.35 | 38 | 1008.4 |
| 20260507165117 | 63 | 324 | 0.0 | 1.0 | 0.00 | 0.36 | 0.35 | 42 | 1008.8 |
| 20260507164117 | 63 | 328 | 0.0 | 4.0 | 0.00 | 0.36 | 0.35 | 38 | 1008.9 |
| 20260507163117 | 64 | 253 | 0.0 | 3.0 | 0.00 | 0.37 | 0.35 | 40 | 1009.1 |
| 20260507162117 | 61 | 17 | 0.0 | 2.0 | 0.00 | 0.37 | 0.35 | 39 | 1009.1 |
| 20260507161117 | 61 | 150 | 0.0 | 1.0 | 0.00 | 0.38 | 0.35 | 43 | 1009.3 |
| 20260507160116 | 61 | 360 | 0.0 | 2.0 | 0.00 | 0.39 | 0.35 | 42 | 1009.2 |
| 20260507155117 | 62 | 251 | 0.0 | 0.0 | 0.00 | 0.41 | 0.35 | 45 | 1009.5 |